Location: Flotzheim
(48.8375°N, 10.8136°E)
Time: 16:30:01
(UTC+00:00)

Cosmos 405 - Pass Details

Date: 23 January 2021
Orbit: 448 x 462 km, 81.3° (Epoch: 28 February)

Event Time Altitude Azimuth Distance (km) Brightness Sun altitude
Rises 17:56:44 0° 351° (N) 2,508 6.7 -18.9°
Reaches altitude 10° 17:58:52 10° 356° (N) 1,626 5.7 -19.3°
Enters shadow 18:00:44 28° 7° (N) 902 4.2 -19.6°
